weather.gov     
National Weather Service

Regional Weather Roundup
NWS Homepage
This page is being discontinued on March 12, 2014.
The same data is available at this site. Please update your bookmarks.
Thank you, and we apologize for the inconvenience.
Please send an email to SR-SRH.Webmaster@noaa.gov with any concerns.


Current Version
Previous Version:    01  02  03  04  05  06  07  08  09  10  11  12  13  14  15  16  17  18  19  20  21  22  23  24  25  26  27  28  29  30  
   31  32  33  34  35  36  37  38  39  40  41  42  43  44  45  46  47  48  49  50  51  52  53  54  55  56  57  58  59  60  
[Printable]
607
ASUS46 KPDT 171325
RWRPDT
PENDLETON REGIONAL WEATHER ROUNDUP
NATIONAL WEATHER SERVICE PENDLETON OREGON
600 AM PDT WED SEP 17 2014

NOTE: FAIR INDICATES FEW OR NO CLOUDS BELOW 12,000 FEET WITH NO
SIGNIFICANT WEATHER AND/OR OBSTRUCTIONS TO VISIBILITY.

# INDICATES UNOFFICIAL STATION AND DATA

WAZ520-171410-
EAST SLOPES OF WASHINGTON CASCADES

CITY            SKY/WX      TMP DP  RH  WIND    PRES   REMARKS
#BUMPING DAM    N/A         50  N/A N/A E3      N/A
#CLE ELUM HS    N/A         54  47  77  CALM    29.78S
#CLE ELUM 2NW   N/A         54  47  77  CALM    N/A
#CLE ELUM LAKE  N/A         58  45  62  CALM    29.68S
#CLIFFDEL 2NW   N/A         53  47  80  CALM    N/A
#GLENWOOD       N/A         49  46  89  CALM    29.74F
#MANASTASH CYN  N/A         53  41  64  CALM    29.82S
#NELSON         N/A         56  52  86  CALM    29.74F
#NELSON 3SW     N/A         55  45  69  CALM    29.90S
#NILE           N/A         54  48  80  CALM    29.03S
#PEOH POINT     N/A         60  45  58  SW8     N/A
#RONALD 2NW     N/A         58  46  64  CALM    29.72S
#TEANAWAY 4NE   N/A         54  48  80  CALM    N/A
#TROUT LAKE 1NE N/A         55  43  64  CALM    29.74F
$$

WAZ521-171410-
SIMCOE HIGHLANDS

CITY            SKY/WX      TMP DP  RH  WIND    PRES   REMARKS
#BICKLETON HS   N/A         61  18  19  CALM    29.88F
#CENTERVILLE 4W N/A         62  45  54  N3      29.56S
#CENTERVILLE 1SWN/A         54  42  64  CALM    29.69F
#GOLDENDALE     N/A         56  44  64  CALM    N/A
#GOLDENDALE 1NE N/A         56  35  45  N3      N/A
#GOLDENDALE 1S  N/A         54  42  64  CALM    29.77F
#GOLDENDALE 5WNWN/A         55  42  61  CALM    29.70F
#GOODNOE HILLS  N/A         63  50  62  W7      29.70F
#LYLE 6NE       N/A         61  50  67  CALM    29.68F
$$

WAZ026-171410-
KITTITAS VALLEY

CITY            SKY/WX      TMP DP  RH  WIND    PRES   REMARKS
ELLENSBURG AP   MOCLDY      54  46  74  NE3     29.79S
#ELLENSBURG CWU N/A         54  48  80  CALM    29.68F
#ELLENSBURG 3NE N/A         52  47  83  E1      29.80S
#ELLENSBURG     N/A         55  52  90  N1      N/A
#KITTITAS 3S    N/A         49  47  93  CALM    29.72F
#THORP 6N       N/A         57  48  72  N5      29.72S
$$

WAZ027-171410-
YAKIMA VALLEY

CITY            SKY/WX      TMP DP  RH  WIND    PRES   REMARKS
SUNNYSIDE AP    N/A         50  48  93  E3      29.76R
YAKIMA AIRPORT  MOCLDY      54  48  80  W8      29.77S
YAKIMA-VAGABOND PTCLDY      60  43  53  E8      29.78S
#COWICHE 1N     N/A         63  46  54  N2      29.95F
#DONALD 2NE     N/A         65  45  48  CALM    30.08S
#GRANDVIEW      N/A         56  48  74  CALM    29.74R
#MABTON         N/A         55  50  83  CALM    29.75R
#MOXEE 2E       N/A         55  38  53  CALM    29.73S
#NACHES 2SW     N/A         62  48  60  W5      29.83S
#OUTLOOK DOT    N/A         N/A N/A N/A CALM    N/A
#SELAH 8E       N/A         54  39  57  E2      N/A
#TERRACE HTS    N/A         56  47  72  CALM    29.69R
#TOPPENISH      N/A         56  51  83  CALM    29.65S
#WAPATO 4NE     N/A         65  45  48  CALM    30.08S
#WEST VALLEY    N/A         57  48  72  CALM    29.71R
#W YAKIMA       N/A         62  49  62  W1      29.71S
#WHITE SWAN 5E  N/A         53  48  83  N1      29.72S
#WILEY CITY 3W  N/A         56  50  80  CALM    29.77F
$$

WAZ028-171410-
LOWER COLUMBIA BASIN...WASHINGTON

CITY            SKY/WX      TMP DP  RH  WIND    PRES   REMARKS
PASCO           MOCLDY      54  51  90  NW5     29.74S
PROSSER AWOS    N/A         55  50  83  S3      29.77S
RICHLAND AWOS   MOCLDY      57  50  77  SW6     29.74S
#BASIN CITY 5SW N/A         55  46  72  NE2     29.73F
#BENTON CITY    N/A         59  49  69  NW3     29.63S
#CONNELL 5N     N/A         57  39  51  NE3     29.73F
#CONNELL 5NW    N/A         55  40  57  E2      29.70S
#ELTOPIA        N/A         58  46  64  CALM    29.69F
#ELTOPIA 6NW    N/A         60  46  60  E3      28.72F
#KENNEWICK 3S   N/A         67  48  50  S1      29.70F
#PASCO-BROADMOORN/A         59  50  72  CALM    29.64R
#PATERSON       N/A         59  49  69  CALM    29.71S
#PROSSER        N/A         65  45  48  CALM    29.71R
#SAGEMOOR 2W    N/A         59  48  67  CALM    29.57F
#TOUCHET 2S     N/A         53  45  74  CALM    29.71F
#WEST PASCO     N/A         58  49  72  CALM    29.72R
$$

WAZ029-171410-
FOOTHILLS OF THE BLUES...WASHINGTON

CITY            SKY/WX      TMP DP  RH  WIND    PRES   REMARKS
WALLA WALLA AP  MOCLDY      66  39  37  E8      29.77F
#DAYTON SCHOOL  N/A         57  35  43  E1      29.79F
#LOWDEN 2SE     N/A         57  46  67  CALM    29.71F
#PLEASANT VIEW 1N/A         63  40  43  S1      29.74F
#PRESCOTT       N/A         57  42  57  S1      29.72F
#SUDBURY        N/A         58  N/A N/A CALM    N/A
#WHITMAN COLLEGEN/A         66  43  43  CALM    29.75F
#WAITSBURG 8N   N/A         57  27  31  N2      29.71S
#WALLA WALLA 5E N/A         66  39  37  W7      N/A
#WALLA WALLA U  N/A         63  46  54  CALM    29.71F
#WHITMAN MISSIONN/A         56  49  77  CALM    29.73F
$$

WAZ030-171410-
BLUE MOUNTAINS...WASHINGTON

CITY            SKY/WX      TMP DP  RH  WIND    PRES   REMARKS
$$

ORZ009-041-WAZ024-171410-
COLUMBIA RIVER GORGE

CITY            SKY/WX      TMP DP  RH  WIND    PRES   REMARKS
HOOD RIVER AP   CLOUDY      57  48  72  CALM    29.77F
THE DALLES AP   CLOUDY      61  49  65  W3      29.74F
#ARLINGTON AIRPON/A         65  48  54  SW3     N/A
#ARLINGTON HS   N/A         67  49  52  W1      29.62F
#MARYHILL 2W    N/A         64  54  70  W1      N/A
#MOSIER 1S      N/A         61  42  50  CALM    29.77F
#MURDOCK        N/A         66  54  65  NW5     29.76R
#RUFUS DOT      N/A         N/A N/A N/A S2      N/A

$$

ORZ510-171410-
NORTH CENTRAL OREGON

CITY            SKY/WX      TMP DP  RH  WIND    PRES   REMARKS
#COW CYN RST AREN/A         66  34  30  N1      N/A
#DUFUR 9E       N/A         68  38  33  S7      29.75S
#GRASS VALLEY   N/A         58  42  55  CALM    N/A
#GRASS VALLEY 1SN/A         60  41  49  CALM    29.75R
#KENT DOT       N/A         60  38  44  CALM    N/A
#MAUPIN SCHOOL  N/A         62  45  54  CALM    28.66
#MORO SCHOOL    N/A         60  46  60  SW1     29.82S
#SHANIKO 5WSW   N/A         63  31  30  E3      N/A
#SHANIKO 4NW    N/A         61  31  32  SE5     29.86F
#TYGH VALLEY 2NEN/A         59  46  62  CALM    29.72F
#WAPANITIA AIRPON/A         59  44  57  CALM    29.73F
#WASCO DOT      N/A         58  47  67  CALM    N/A
#WASCO AIRPORT  N/A         64  44  48  W2      N/A
#WASCO 5NE      N/A         64  47  54  W1      29.70F
$$

ORZ511-171410-
CENTRAL OREGON

CITY            SKY/WX      TMP DP  RH  WIND    PRES   REMARKS
BEND AIRPORT    CLOUDY      55  39  55  CALM    29.88S
MADRAS AIRPORT  CLOUDY      57  43  59  SE3     29.84F
REDMOND AIRPORT CLOUDY      54  36  50  S5      29.85S
#BEND 6E        N/A         55  38  53  CALM    29.65R
#BEND 1SW       N/A         52  38  59  CALM    N/A
#BEND-AWBREY    N/A         59  42  53  CALM    29.68F
#BEND-KIM LN    N/A         56  43  62  S2      29.84S
#CROOKED RVR RANN/A         57  42  57  S17     29.69F
#CULVER         N/A         57  45  64  CALM    29.79F
#LAKE BILLY CHINN/A         60  15  17  CALM    29.88S
#POWELL BUTTE 3EN/A         54  39  57  SE1     N/A
#POWELL BUTTE   N/A         57  38  49  S1      29.51F
#PRINEVILLE 3N  N/A         53  42  66  CALM    29.67F
#WARM SPRINGS   N/A         59  43  55  CALM    29.77F


ORZ509-171410-
EAST SLOPES OF OREGON CASCADES

CITY            SKY/WX      TMP DP  RH  WIND    PRES   REMARKS
#BLUE BOX PASS  N/A         61   8  12  N1      N/A
#BLACK BUTTE RNCN/A         52  43  71  CALM    29.73F
#CAMP SHERMAN   N/A         48  38  68  CALM    29.73R
#LA PINE DOT    N/A         47  36  65  SW2     N/A
#LA PINE 4NW    N/A         45  35  68  CALM    29.78S
#LAVA BUTTE DOT N/A         51  39  63  W7      N/A
#SISTERS AIRPOR N/A         51  44  77  CALM    29.85F
#SISTERS ODOT   N/A         51  N/A N/A CALM    N/A
#SISTERS 1NW    N/A         51  37  59  N6      N/A
#SISTERS 3N     N/A         50  34  54  CALM    N/A
#SUNRIVER       N/A         49  42  77  CALM    29.63F
#SUNRIVER AP    N/A         47  41  79  CALM    29.69F
#SUTTLE LK DOT  N/A         48  40  74  CALM    N/A
#TUMALO 3W      N/A         60  39  46  W3      29.57F
#WANOGA BUTTE D N/A         59  32  36  SE1     N/A

$$

ORZ044-171410-
LOWER COLUMBIA BASIN...OREGON

CITY            SKY/WX      TMP DP  RH  WIND    PRES   REMARKS
HERMISTON       MOCLDY      58  41  53  E3      29.74F
#BOARDMAN SCHOOLN/A         83  40  22  CALM    29.73F
#BOARDMAN 3W    N/A         56  50  80  SE3     29.44S
#BOARDMAN 8SW   N/A         60  49  67  CALM    29.72S
#ECHO 8SW       N/A         57  41  55  S2      29.73S
#IONE SCHOOL    N/A         63  40  43  CALM    29.75F
#IRRIGON 4NW    N/A         59  51  75  W3      N/A
#UMATILLA       N/A         58  45  62  E1      29.72S
$$

ORZ507-171410-
NORTHERN FOOTHILLS OF THE BLUES

CITY            SKY/WX      TMP DP  RH  WIND    PRES   REMARKS
PENDLETON AIRPT MOCLDY      58  35  42  E7      29.77S
#ADAMS 3WNW     N/A         58  37  45  CALM    29.72F
#ATHENA         N/A         67  40  37  CALM    29.74F
#HELIX SCHOOL   N/A         57  39  51  CALM    29.72F
#HELIX 3N       N/A         61  36  39  CALM    29.77F
#HOLDMAN 5SE    N/A         64  37  37  SE2     29.78F
#HOLDMAN 6E     N/A         63  37  38  CALM    29.54F
#M-FREEWATER 5SEN/A         67  43  42  CALM    29.77F
#PENDLETON DNTN N/A         55  34  45  CALM    29.79S
#PDT AQUATIC CTRN/A         56  35  45  CALM    29.76F
#PDT SUNRIDGE   N/A         55  39  55  CALM    29.79S
#PENDLETON 7NW  N/A         60  39  46  E2      26.34F
#PILOT ROCK     N/A         64  30  28  SE6     29.81R
#TUTUILLA       N/A         53  39  59  CALM    29.75F
#UMAPINE 2E     N/A         65  47  52  SW2     29.71F
#WESTON SCHOOL  N/A         69  35  28  N6      29.75F

$$

ORZ508-171410-
SOUTHERN FOOTHILLS OF THE BLUES

CITY            SKY/WX      TMP DP  RH  WIND    PRES   REMARKS
#AJAX           N/A         65  35  33  CALM    29.76F
#CONDON SCHOOL  N/A         60  37  42  CALM    29.80F
#CONDON 5W      N/A         64  34  33  CALM    29.81F
#FOSSIL SCHOOL  N/A         55  37  51  CALM    29.82F
#HEPPNER EOC    N/A         61  36  39  SE7     29.67F
#HEPPNER 4NE    N/A         61  36  39  E1      29.70F
#LEXINGTON 2SE  N/A         63  39  41  SE3     29.73F
#MIKKALO        N/A         66  36  33  S2      29.79F
#OLEX 4N        N/A         64  40  41  S3      29.75F
#RUGGS 5NE      N/A         59  33  37  SE1     30.01S
#RUGGS 2SW      N/A         64  34  33  SW9     29.75F

$$

ORZ502-503-171410-
BLUE MOUNTAINS

CITY            SKY/WX      TMP DP  RH  WIND    PRES   REMARKS
MEACHAM         CLOUDY      45  35  68  CALM    29.89F
#BATTLE MTN DOT N/A         54  39  57  CALM    N/A
#HARDMAN 10S    N/A         57  33  40  CALM    29.96F
#HEPPNER 15SE   N/A         54  34  47  SE1     29.79F
#LADD CYN SMT   N/A         55  33  43  CALM    N/A
#LADD CREEK ODOTN/A         56  39  53  S2      N/A
#N POWDER DOT   N/A         50  46  86  SE1     N/A
#PIKES PEAK     N/A         70  34  26  NE7     27.99S
#TOLLGATE       N/A         55  38  53  CALM    29.88F
#TOLLGATE 9W    N/A         60  36  41  SE3     N/A
#TROY SCHOOL    N/A         53  43  69  CALM    29.65R
#UKIAH          N/A         44  35  70  CALM    29.82F
#WESTON 4E      N/A         64  39  40  E5      29.63F
$$

ORZ505-171410-
JOHN DAY BASIN

CITY            SKY/WX      TMP DP  RH  WIND    PRES   REMARKS
JOHN DAY        MOCLDY      59  33  37  SE8     29.89F
#MT. VERNON 5SE N/A         58  34  40  CALM    29.85F
#WINLOCK        N/A         59  32  36  CALM    29.94F
$$

ORZ506-171410-
OCHOCO AND JOHN DAY HIGHLANDS

CITY            SKY/WX      TMP DP  RH  WIND    PRES   REMARKS
#BUCK CREEK DOT N/A         57  37  47  CALM    N/A
#HORSE RIDGE DO N/A         45  27  49  CALM    N/A
#KEYES SMT DOT  N/A         55  34  45  CALM    N/A
#PAULINA SCHOOL N/A         47  33  58  CALM    29.89F
#PINE MTN OBS   N/A         58  32  37  S6      N/A
#PRAIRIE CITY   N/A         48  36  63  CALM    29.91F
#SENECA 9NW     N/A         43  30  60  CALM    29.73F
$$

ORZ049-171410-
GRANDE RONDE VALLEY

CITY            SKY/WX      TMP DP  RH  WIND    PRES   REMARKS
LA GRANDE       CLOUDY      54  30  40  CALM    29.85F
#COVE           N/A         57  43  59  CALM    29.79F
#COVE SCHOOL    N/A         58  41  53  CALM    29.85F
#COVE 6NW       N/A         50  39  66  CALM    29.79S
#ELGIN 3N       N/A         50  35  56  CALM    29.60F
#ELGIN 1E       N/A         49  37  63  CALM    N/A
#IMBLER SCHOOL  N/A         52  38  59  CALM    29.83F
#LADD CYN DOT   N/A         60  38  44  SE6     N/A
#LA GRANDE ELEM N/A         58  38  47  CALM    29.85S
#UNION 1S       N/A         54  41  61  CALM    29.65F
$$

ORZ050-171410-
WALLOWA COUNTY

CITY            SKY/WX      TMP DP  RH  WIND    PRES   REMARKS
#ENTERPRISE AP  N/A         51  36  56  CALM    29.86S
#ENTERPRISE HS  N/A         49  41  74  CALM    29.92F
#IMNAHA SCHOOL  N/A         57  42  57  CALM    29.83R
#IMNAHA 10S     N/A         61  39  44  SW2     29.88R
#JOSEPH 3N      N/A         47  40  76  CALM    29.93F
#JOSEPH 3W      N/A         60  40  47  SW2     29.80S
#LOSTINE        N/A         50  42  74  CALM    29.55F
#MT HOWARD 8000 N/A         58  34  40  CALM    30.15F
#PROMISE 1S     N/A         55  37  51  CALM    29.82R
#SHEEP RDG 7000 N/A         63  39  41  CALM    29.65S
#WALLOWA SCHOOL N/A         48  42  80  CALM    30.67S



$$




U.S. Dept. of Commerce
NOAA National Weather Service
1325 East West Highway
Silver Spring, MD 20910
E-mail: w-nws.webmaster@noaa.gov
Page last modified: May 16, 2007
NATIONAL WEATHER SERVICE: for Safety, for Work, for Fun - FOR LIFE